TimeEST,TemperatureF,Dew PointF,Humidity,Sea Level PressureIn,VisibilityMPH,Wind Direction,Wind SpeedMPH,Gust SpeedMPH,PrecipitationIn,Events,Conditions,WindDirDegrees,DateUTC
12:53 AM,39.0,27.0,62,29.26,10.0,SW,9.2,17.3,N/A,,Scattered Clouds,220,2012-12-22 05:53:00
1:53 AM,37.9,27.0,65,29.27,10.0,SW,8.1,-,N/A,,Mostly Cloudy,220,2012-12-22 06:53:00
2:53 AM,37.9,27.0,65,29.28,10.0,Variable,6.9,-,N/A,,Overcast,0,2012-12-22 07:53:00
3:53 AM,37.9,28.0,68,29.29,10.0,SW,6.9,-,N/A,,Overcast,220,2012-12-22 08:53:00
4:06 AM,37.4,28.4,70,29.29,10.0,SW,6.9,-,N/A,,Overcast,220,2012-12-22 09:06:00
4:53 AM,37.0,28.9,73,29.29,10.0,SW,5.8,-,N/A,,Overcast,220,2012-12-22 09:53:00
5:31 AM,37.4,28.4,70,29.31,10.0,SSW,5.8,-,N/A,,Overcast,210,2012-12-22 10:31:00
5:53 AM,37.9,30.0,73,29.32,10.0,WSW,9.2,-,N/A,,Overcast,250,2012-12-22 10:53:00
6:00 AM,37.4,30.2,75,29.32,10.0,SW,5.8,-,N/A,,Overcast,230,2012-12-22 11:00:00
6:53 AM,37.9,28.9,70,29.35,10.0,WSW,8.1,-,N/A,,Overcast,240,2012-12-22 11:53:00
7:53 AM,37.0,26.1,65,29.39,10.0,West,12.7,-,N/A,,Mostly Cloudy,280,2012-12-22 12:53:00
8:24 AM,35.6,26.6,70,29.42,9.0,NW,11.5,20.7,N/A,,Overcast,310,2012-12-22 13:24:00
8:53 AM,36.0,26.1,67,29.44,10.0,WNW,6.9,-,N/A,,Overcast,300,2012-12-22 13:53:00
9:53 AM,36.0,23.0,59,29.46,10.0,West,10.4,-,N/A,,Overcast,280,2012-12-22 14:53:00
10:53 AM,37.0,21.0,52,29.47,10.0,WNW,11.5,21.9,N/A,,Overcast,300,2012-12-22 15:53:00
11:53 AM,36.0,18.0,48,29.48,10.0,WNW,18.4,31.1,N/A,,Overcast,300,2012-12-22 16:53:00
12:53 PM,35.1,21.0,57,29.48,10.0,WNW,8.1,-,N/A,,Overcast,300,2012-12-22 17:53:00
1:53 PM,37.0,16.0,42,29.49,10.0,West,24.2,36.8,N/A,,Overcast,280,2012-12-22 18:53:00
2:53 PM,35.1,19.0,52,29.52,10.0,WNW,15.0,23.0,N/A,,Overcast,290,2012-12-22 19:53:00
3:53 PM,35.1,17.1,48,29.54,10.0,NW,17.3,26.5,N/A,,Mostly Cloudy,310,2012-12-22 20:53:00
4:53 PM,35.1,18.0,50,29.58,10.0,West,15.0,28.8,N/A,,Overcast,280,2012-12-22 21:53:00
5:53 PM,33.1,21.0,61,29.61,10.0,WNW,13.8,21.9,N/A,,Overcast,290,2012-12-22 22:53:00
6:53 PM,33.1,21.9,64,29.65,10.0,NW,10.4,25.3,N/A,,Overcast,310,2012-12-22 23:53:00
7:53 PM,34.0,21.0,59,29.67,10.0,NW,9.2,17.3,N/A,,Overcast,310,2012-12-23 00:53:00
8:53 PM,35.1,18.0,50,29.69,10.0,NW,19.6,29.9,N/A,,Overcast,320,2012-12-23 01:53:00
9:53 PM,36.0,18.0,48,29.71,10.0,NW,13.8,21.9,N/A,,Overcast,310,2012-12-23 02:53:00
10:53 PM,36.0,18.0,48,29.73,10.0,WNW,12.7,23.0,N/A,,Overcast,300,2012-12-23 03:53:00
11:53 PM,36.0,19.0,50,29.73,10.0,WNW,9.2,23.0,N/A,,Overcast,300,2012-12-23 04:53:00